Location: Arclight Observatory
(36.5667°N, 87.3333°W)
Time: 20:29:41
(UTC-05:00)

ISS - Visible Passes

Search period start: 22 July 2014 00:00
Search period end: 01 August 2014 00:00
Orbit: 413 x 420 km, 51.6° (Epoch: 22 July)

Date Brightness Start Highest point End Pass type
(mag) Time Alt. Az. Time Alt. Az. Time Alt. Az.
22 Jul -1.0 03:35:25 17° NW 03:35:57 18° NNW 03:38:18 10° NNE visible
23 Jul -0.7 02:48:36 20° N 02:48:36 20° N 02:50:10 10° NNE visible
24 Jul 0.2 02:01:45 11° NE 02:01:45 11° NE 02:01:53 10° NE visible
25 Jul -0.2 02:47:45 13° NNW 02:47:45 13° NNW 02:49:03 10° N visible
26 Jul 0.3 02:00:51 11° NNE 02:00:51 11° NNE 02:01:03 10° NNE visible
28 Jul -0.1 05:13:22 10° N 05:14:58 13° NNE 05:16:34 10° NE visible
30 Jul -0.7 05:12:11 10° NNW 05:15:01 24° NNE 05:17:51 10° E visible
31 Jul -0.2 04:24:03 10° NNW 04:26:19 17° NNE 04:28:35 10° ENE visible
